{"data":{"norad_id":57850,"intl_designator":"2023-141L","name":"STARLINK-30425","alt_names":[],"object_type":"PAYLOAD","status":"ACTIVE","operator":null,"country":"US","launch_date":"2023-09-12","launch_site_code":"AFWTR","launch_vehicle":null,"mission":null,"orbit_class":"UNKNOWN","rcs_meters":null,"size_class":null,"mass_kg":null,"dimensions":null,"purposes":["comms"],"wikipedia_slug":null,"has_3d_model":false,"image_url":null,"decayed_at":null,"tle_current":{"epoch":"2026-09-20T22:42:11.246400Z","epoch_age_seconds":96267,"freshness":"FRESH","line1":"1 57850U 23141L   26263.94596350  .00000838  00000+0  35931-4 0  9999","line2":"2 57850  53.1593  95.4487 0001249  86.6907 273.4239 15.34400521170241","mean_motion":15.34400521,"eccentricity":0.0001249,"inclination_deg":53.1593,"raan_deg":95.4487,"arg_perigee_deg":86.6907,"mean_anomaly_deg":273.4239,"bstar":3.5931e-5,"rev_number":17024,"period_min":93.847726215677,"perigee_km":461.84727093316,"apogee_km":463.55611243834,"semimajor_km":6840.8386916857,"source":"CELESTRAK","updated_at":"2026-09-21T09:00:33.713003Z"}}}